Time,TemperatureF,DewpointF,PressureIn,WindDirection,WindDirectionDegrees,WindSpeedMPH,WindSpeedGustMPH,Humidity,HourlyPrecipIn,Conditions,Clouds,dailyrainin,SoftwareType,DateUTC
2013-04-22 00:01:00,62.5,47.5,29.84,East,82,0.0,0.0,58,0.00,,---,0.00,VWS V14.01,2013-04-22 07:01:00,
2013-04-22 00:06:00,62.4,47.9,29.84,East,82,0.0,0.0,59,0.00,,---,0.00,VWS V14.01,2013-04-22 07:06:00,
2013-04-22 00:12:00,62.3,47.8,29.84,East,82,0.0,0.0,59,0.00,,---,0.00,VWS V14.01,2013-04-22 07:12:00,
2013-04-22 00:17:00,62.0,47.5,29.84,West,275,0.0,0.0,59,0.00,,---,0.00,VWS V14.01,2013-04-22 07:17:00,
2013-04-22 00:22:00,61.7,47.2,29.85,West,265,0.0,0.0,59,0.00,,---,0.00,VWS V14.01,2013-04-22 07:22:00,
2013-04-22 00:27:00,61.6,47.6,29.85,West,269,0.0,0.0,60,0.00,,---,0.00,VWS V14.01,2013-04-22 07:27:00,
2013-04-22 00:32:00,61.4,47.4,29.85,West,269,0.0,0.0,60,0.00,,---,0.00,VWS V14.01,2013-04-22 07:32:00,
2013-04-22 00:37:00,61.2,47.2,29.85,West,269,0.0,0.0,60,0.00,,---,0.00,VWS V14.01,2013-04-22 07:37:00,
2013-04-22 00:42:00,60.9,46.9,29.85,West,269,0.0,0.0,60,0.00,,---,0.00,VWS V14.01,2013-04-22 07:42:00,
2013-04-22 00:47:00,60.7,47.2,29.85,West,269,0.0,0.0,61,0.00,,---,0.00,VWS V14.01,2013-04-22 07:47:00,
2013-04-22 00:52:00,60.6,47.5,29.85,East,92,0.0,0.0,62,0.00,,---,0.00,VWS V14.01,2013-04-22 07:52:00,
2013-04-22 00:57:00,60.4,47.8,29.85,East,92,0.0,0.0,63,0.00,,---,0.00,VWS V14.01,2013-04-22 07:57:00,
2013-04-22 01:02:00,60.2,47.6,29.85,ENE,63,0.0,0.0,63,0.00,,---,0.00,VWS V14.01,2013-04-22 08:02:00,
2013-04-22 01:07:00,60.0,47.0,29.85,East,85,0.0,0.0,62,0.00,,---,0.00,VWS V14.01,2013-04-22 08:07:00,
2013-04-22 01:12:00,60.0,47.0,29.84,East,92,0.0,0.0,62,0.00,,---,0.00,VWS V14.01,2013-04-22 08:12:00,
2013-04-22 01:17:00,59.9,46.9,29.84,East,95,0.0,0.0,62,0.00,,---,0.00,VWS V14.01,2013-04-22 08:17:00,
2013-04-22 01:22:00,60.0,47.0,29.84,ESE,104,0.0,0.0,62,0.00,,---,0.00,VWS V14.01,2013-04-22 08:22:00,
2013-04-22 01:27:00,60.0,47.0,29.84,ESE,105,0.0,0.0,62,0.00,,---,0.00,VWS V14.01,2013-04-22 08:27:00,
2013-04-22 01:32:00,60.0,46.5,29.84,East,99,0.0,0.0,61,0.00,,---,0.00,VWS V14.01,2013-04-22 08:32:00,
2013-04-22 01:37:00,60.0,46.5,29.84,ESE,112,0.0,0.0,61,0.00,,---,0.00,VWS V14.01,2013-04-22 08:37:00,
2013-04-22 01:42:00,59.9,46.4,29.84,East,99,1.0,0.0,61,0.00,,---,0.00,VWS V14.01,2013-04-22 08:42:00,
2013-04-22 01:47:00,59.8,46.8,29.83,East,95,0.0,0.0,62,0.00,,---,0.00,VWS V14.01,2013-04-22 08:47:00,
2013-04-22 01:52:00,59.7,46.7,29.83,East,94,1.0,0.0,62,0.00,,---,0.00,VWS V14.01,2013-04-22 08:52:00,
2013-04-22 01:57:00,59.6,46.6,29.83,East,98,0.0,0.0,62,0.00,,---,0.00,VWS V14.01,2013-04-22 08:57:00,
2013-04-22 02:02:00,59.6,46.6,29.83,East,96,0.0,0.0,62,0.00,,---,0.00,VWS V14.01,2013-04-22 09:02:00,
2013-04-22 02:07:00,59.5,46.5,29.83,East,79,0.0,0.0,62,0.00,,---,0.00,VWS V14.01,2013-04-22 09:07:00,
2013-04-22 02:13:00,59.4,46.4,29.83,ENE,78,0.0,0.0,62,0.00,,---,0.00,VWS V14.01,2013-04-22 09:13:00,
2013-04-22 02:18:00,59.4,46.8,29.83,East,85,0.0,0.0,63,0.00,,---,0.00,VWS V14.01,2013-04-22 09:18:00,
2013-04-22 02:23:00,59.3,46.3,29.83,East,96,0.0,0.0,62,0.00,,---,0.00,VWS V14.01,2013-04-22 09:23:00,
2013-04-22 02:28:00,59.3,46.3,29.83,East,97,5.0,0.0,62,0.00,,---,0.00,VWS V14.01,2013-04-22 09:28:00,
2013-04-22 02:33:00,59.3,46.7,29.82,ESE,103,0.0,0.0,63,0.00,,---,0.00,VWS V14.01,2013-04-22 09:33:00,
2013-04-22 02:38:00,59.2,46.6,29.82,East,95,4.0,0.0,63,0.00,,---,0.00,VWS V14.01,2013-04-22 09:38:00,
2013-04-22 02:43:00,59.1,46.5,29.82,East,96,0.0,0.0,63,0.00,,---,0.00,VWS V14.01,2013-04-22 09:43:00,
2013-04-22 02:48:00,59.0,46.0,29.82,East,96,2.0,0.0,62,0.00,,---,0.00,VWS V14.01,2013-04-22 09:48:00,
2013-04-22 02:53:00,59.0,46.0,29.82,East,96,2.0,0.0,62,0.00,,---,0.00,VWS V14.01,2013-04-22 09:53:00,
2013-04-22 02:58:00,59.0,46.4,29.82,East,93,1.0,0.0,63,0.00,,---,0.00,VWS V14.01,2013-04-22 09:58:00,
2013-04-22 03:03:00,58.9,46.3,29.82,East,101,1.0,0.0,63,0.00,,---,0.00,VWS V14.01,2013-04-22 10:03:00,
2013-04-22 03:08:00,58.8,45.8,29.82,East,82,3.0,0.0,62,0.00,,---,0.00,VWS V14.01,2013-04-22 10:08:00,
2013-04-22 03:13:00,58.8,45.8,29.82,ENE,78,0.0,0.0,62,0.00,,---,0.00,VWS V14.01,2013-04-22 10:13:00,
2013-04-22 03:18:00,58.9,45.9,29.82,East,94,5.0,0.0,62,0.00,,---,0.00,VWS V14.01,2013-04-22 10:18:00,
2013-04-22 03:23:00,58.9,45.9,29.81,ENE,70,3.0,0.0,62,0.00,,---,0.00,VWS V14.01,2013-04-22 10:23:00,
2013-04-22 03:28:00,58.9,45.9,29.81,East,92,6.0,0.0,62,0.00,,---,0.00,VWS V14.01,2013-04-22 10:28:00,
2013-04-22 03:33:00,58.9,45.9,29.81,ESE,108,0.0,0.0,62,0.00,,---,0.00,VWS V14.01,2013-04-22 10:33:00,
2013-04-22 03:38:00,58.9,45.9,29.81,ESE,106,2.0,0.0,62,0.00,,---,0.00,VWS V14.01,2013-04-22 10:38:00,
2013-04-22 03:43:00,58.8,45.8,29.81,NE,50,1.0,0.0,62,0.00,,---,0.00,VWS V14.01,2013-04-22 10:43:00,
2013-04-22 03:48:00,58.8,45.8,29.81,ESE,111,6.0,0.0,62,0.00,,---,0.00,VWS V14.01,2013-04-22 10:48:00,
2013-04-22 03:53:00,58.8,46.2,29.81,East,92,0.0,0.0,63,0.00,,---,0.00,VWS V14.01,2013-04-22 10:53:00,
2013-04-22 03:58:00,58.7,45.7,29.81,ENE,68,1.0,0.0,62,0.00,,---,0.00,VWS V14.01,2013-04-22 10:58:00,
2013-04-22 04:04:00,58.7,45.7,29.81,East,96,2.0,0.0,62,0.00,,---,0.00,VWS V14.01,2013-04-22 11:04:00,
2013-04-22 04:09:00,58.6,45.6,29.81,ESE,109,1.0,0.0,62,0.00,,---,0.00,VWS V14.01,2013-04-22 11:09:00,
2013-04-22 04:14:00,58.6,45.6,29.81,East,92,4.0,0.0,62,0.00,,---,0.00,VWS V14.01,2013-04-22 11:14:00,
2013-04-22 04:19:00,58.6,45.6,29.81,East,97,1.0,0.0,62,0.00,,---,0.00,VWS V14.01,2013-04-22 11:19:00,
2013-04-22 04:24:00,58.6,45.6,29.81,East,79,2.0,0.0,62,0.00,,---,0.00,VWS V14.01,2013-04-22 11:24:00,
2013-04-22 04:29:00,58.5,46.0,29.81,East,83,3.0,0.0,63,0.00,,---,0.00,VWS V14.01,2013-04-22 11:29:00,
2013-04-22 04:34:00,58.4,45.9,29.81,ENE,78,0.0,0.0,63,0.00,,---,0.00,VWS V14.01,2013-04-22 11:34:00,
2013-04-22 04:39:00,58.3,45.8,29.82,East,96,1.0,0.0,63,0.00,,---,0.00,VWS V14.01,2013-04-22 11:39:00,
2013-04-22 04:44:00,58.1,45.6,29.82,ESE,103,2.0,0.0,63,0.00,,---,0.00,VWS V14.01,2013-04-22 11:44:00,
2013-04-22 04:49:00,58.1,46.0,29.81,East,97,0.0,0.0,64,0.00,,---,0.00,VWS V14.01,2013-04-22 11:49:00,
2013-04-22 04:54:00,58.0,45.5,29.82,East,94,1.0,0.0,63,0.00,,---,0.00,VWS V14.01,2013-04-22 11:54:00,
2013-04-22 04:59:00,58.0,45.9,29.81,East,96,2.0,0.0,64,0.00,,---,0.00,VWS V14.01,2013-04-22 11:59:00,
2013-04-22 05:04:00,57.9,45.8,29.81,East,89,1.0,0.0,64,0.00,,---,0.00,VWS V14.01,2013-04-22 12:04:00,
2013-04-22 05:09:00,57.9,45.4,29.82,ENE,64,2.0,0.0,63,0.00,,---,0.00,VWS V14.01,2013-04-22 12:09:00,
2013-04-22 05:14:00,57.9,45.8,29.81,East,88,2.0,0.0,64,0.00,,---,0.00,VWS V14.01,2013-04-22 12:14:00,
2013-04-22 05:19:00,57.9,45.8,29.82,ESE,118,1.0,0.0,64,0.00,,---,0.00,VWS V14.01,2013-04-22 12:19:00,
2013-04-22 05:24:00,57.8,45.7,29.81,East,92,2.0,0.0,64,0.00,,---,0.00,VWS V14.01,2013-04-22 12:24:00,
2013-04-22 05:29:00,57.7,45.6,29.81,East,101,0.0,0.0,64,0.00,,---,0.00,VWS V14.01,2013-04-22 12:29:00,
2013-04-22 05:34:00,57.5,45.8,29.81,ESE,104,4.0,0.0,65,0.00,,---,0.00,VWS V14.01,2013-04-22 12:34:00,
2013-04-22 05:39:00,57.3,45.7,29.81,ESE,120,4.0,0.0,65,0.00,,---,0.00,VWS V14.01,2013-04-22 12:39:00,
2013-04-22 05:44:00,57.1,45.9,29.81,East,99,0.0,0.0,66,0.00,,---,0.00,VWS V14.01,2013-04-22 12:44:00,
2013-04-22 05:50:00,56.9,45.7,29.81,East,93,2.0,0.0,66,0.00,,---,0.00,VWS V14.01,2013-04-22 12:50:00,
2013-04-22 05:55:00,56.8,46.0,29.81,East,87,0.0,0.0,67,0.00,,---,0.00,VWS V14.01,2013-04-22 12:55:00,
2013-04-22 06:00:00,56.7,45.9,29.81,East,87,0.0,0.0,67,0.00,,---,0.00,VWS V14.01,2013-04-22 13:00:00,
2013-04-22 06:05:00,56.6,45.8,29.82,East,97,1.0,0.0,67,0.00,,---,0.00,VWS V14.01,2013-04-22 13:05:00,
2013-04-22 06:10:00,56.5,45.7,29.82,East,101,1.0,0.0,67,0.00,,---,0.00,VWS V14.01,2013-04-22 13:10:00,
2013-04-22 06:15:00,56.4,45.6,29.82,ESE,104,0.0,0.0,67,0.00,,---,0.00,VWS V14.01,2013-04-22 13:15:00,
2013-04-22 06:20:00,56.3,45.9,29.82,East,92,2.0,0.0,68,0.00,,---,0.00,VWS V14.01,2013-04-22 13:20:00,
2013-04-22 06:25:00,56.2,45.8,29.82,East,99,1.0,0.0,68,0.00,,---,0.00,VWS V14.01,2013-04-22 13:25:00,
2013-04-22 06:30:00,56.1,46.1,29.82,ESE,103,0.0,0.0,69,0.00,,---,0.00,VWS V14.01,2013-04-22 13:30:00,
2013-04-22 06:35:00,56.1,46.1,29.82,ENE,71,0.0,0.0,69,0.00,,---,0.00,VWS V14.01,2013-04-22 13:35:00,
2013-04-22 06:40:00,56.0,46.4,29.82,ENE,77,0.0,0.0,70,0.00,,---,0.00,VWS V14.01,2013-04-22 13:40:00,
2013-04-22 06:45:00,56.0,46.0,29.83,East,90,0.0,0.0,69,0.00,,---,0.00,VWS V14.01,2013-04-22 13:45:00,
2013-04-22 06:50:00,55.9,46.3,29.83,East,94,1.0,0.0,70,0.00,,---,0.00,VWS V14.01,2013-04-22 13:50:00,
2013-04-22 06:55:00,55.8,46.2,29.83,East,101,0.0,0.0,70,0.00,,---,0.00,VWS V14.01,2013-04-22 13:55:00,
2013-04-22 07:00:00,55.8,46.2,29.83,East,95,0.0,0.0,70,0.00,,---,0.00,VWS V14.01,2013-04-22 14:00:00,
2013-04-22 07:05:00,55.7,46.5,29.83,East,95,0.0,0.0,71,0.00,,---,0.00,VWS V14.01,2013-04-22 14:05:00,
2013-04-22 07:10:00,55.7,46.5,29.83,East,95,0.0,0.0,71,0.00,,---,0.00,VWS V14.01,2013-04-22 14:10:00,
2013-04-22 07:15:00,55.7,46.5,29.83,East,97,0.0,0.0,71,0.00,,---,0.00,VWS V14.01,2013-04-22 14:15:00,
2013-04-22 07:20:00,55.8,46.5,29.83,ENE,74,0.0,0.0,71,0.00,,---,0.00,VWS V14.01,2013-04-22 14:20:00,
2013-04-22 07:25:00,55.9,47.0,29.83,ESE,113,2.0,0.0,72,0.00,,---,0.00,VWS V14.01,2013-04-22 14:25:00,
2013-04-22 07:31:00,56.0,47.1,29.83,ESE,103,0.0,0.0,72,0.00,,---,0.00,VWS V14.01,2013-04-22 14:31:00,
2013-04-22 07:36:00,56.2,46.6,29.83,East,92,2.0,0.0,70,0.00,,---,0.00,VWS V14.01,2013-04-22 14:36:00,
2013-04-22 07:41:00,56.4,47.1,29.83,East,96,1.0,0.0,71,0.00,,---,0.00,VWS V14.01,2013-04-22 14:41:00,
2013-04-22 07:46:00,56.6,47.3,29.83,East,94,0.0,0.0,71,0.00,,---,0.00,VWS V14.01,2013-04-22 14:46:00,
2013-04-22 07:51:00,56.8,46.8,29.84,East,81,0.0,0.0,69,0.00,,---,0.00,VWS V14.01,2013-04-22 14:51:00,
2013-04-22 07:56:00,57.1,47.4,29.84,East,90,0.0,0.0,70,0.00,,---,0.00,VWS V14.01,2013-04-22 14:56:00,
2013-04-22 08:01:00,57.4,46.9,29.84,East,96,0.0,0.0,68,0.00,,---,0.00,VWS V14.01,2013-04-22 15:01:00,
2013-04-22 08:06:00,57.7,47.6,29.84,East,96,0.0,0.0,69,0.00,,---,0.00,VWS V14.01,2013-04-22 15:06:00,
2013-04-22 08:11:00,58.1,48.0,29.84,ESE,103,1.0,0.0,69,0.00,,---,0.00,VWS V14.01,2013-04-22 15:11:00,
2013-04-22 08:16:00,58.6,48.1,29.84,ESE,112,0.0,0.0,68,0.00,,---,0.00,VWS V14.01,2013-04-22 15:16:00,
2013-04-22 08:21:00,59.1,48.2,29.84,ESE,103,0.0,0.0,67,0.00,,---,0.00,VWS V14.01,2013-04-22 15:21:00,
2013-04-22 08:26:00,59.8,49.2,29.84,ESE,103,0.0,0.0,68,0.00,,---,0.00,VWS V14.01,2013-04-22 15:26:00,
2013-04-22 08:31:00,60.4,49.4,29.83,ESE,103,0.0,0.0,67,0.00,,---,0.00,VWS V14.01,2013-04-22 15:31:00,
2013-04-22 08:36:00,61.0,48.8,29.84,East,92,2.0,0.0,64,0.00,,---,0.00,VWS V14.01,2013-04-22 15:36:00,
2013-04-22 08:41:00,61.5,48.4,29.84,East,90,0.0,0.0,62,0.00,,---,0.00,VWS V14.01,2013-04-22 15:41:00,
2013-04-22 08:46:00,61.9,49.2,29.84,East,90,0.0,0.0,63,0.00,,---,0.00,VWS V14.01,2013-04-22 15:46:00,
2013-04-22 08:51:00,62.3,49.6,29.84,East,90,0.0,0.0,63,0.00,,---,0.00,VWS V14.01,2013-04-22 15:51:00,
2013-04-22 08:56:00,62.6,49.0,29.84,East,95,2.0,0.0,61,0.00,,---,0.00,VWS V14.01,2013-04-22 15:56:00,
2013-04-22 09:01:00,62.9,49.3,29.84,East,96,0.0,0.0,61,0.00,,---,0.00,VWS V14.01,2013-04-22 16:01:00,
2013-04-22 09:06:00,63.3,49.6,29.83,East,95,0.0,0.0,61,0.00,,---,0.00,VWS V14.01,2013-04-22 16:06:00,
2013-04-22 09:11:00,63.6,49.9,29.84,East,95,1.0,0.0,61,0.00,,---,0.00,VWS V14.01,2013-04-22 16:11:00,
2013-04-22 09:17:00,63.9,49.8,29.84,East,95,0.0,0.0,60,0.00,,---,0.00,VWS V14.01,2013-04-22 16:17:00,
2013-04-22 09:22:00,64.3,49.7,29.84,East,96,0.0,0.0,59,0.00,,---,0.00,VWS V14.01,2013-04-22 16:22:00,
2013-04-22 09:27:00,64.8,50.2,29.83,East,95,0.0,0.0,59,0.00,,---,0.00,VWS V14.01,2013-04-22 16:27:00,
2013-04-22 09:32:00,65.2,51.4,29.83,East,95,0.0,0.0,61,0.00,,---,0.00,VWS V14.01,2013-04-22 16:32:00,
2013-04-22 09:37:00,66.0,51.7,29.83,NE,49,0.0,0.0,60,0.00,,---,0.00,VWS V14.01,2013-04-22 16:37:00,
2013-04-22 09:42:00,66.4,52.1,29.83,North,360,0.0,0.0,60,0.00,,---,0.00,VWS V14.01,2013-04-22 16:42:00,
2013-04-22 09:47:00,67.0,52.7,29.83,NNW,328,0.0,0.0,60,0.00,,---,0.00,VWS V14.01,2013-04-22 16:47:00,
2013-04-22 09:52:00,67.5,53.1,29.83,NE,53,1.0,0.0,60,0.00,,---,0.00,VWS V14.01,2013-04-22 16:52:00,
2013-04-22 09:57:00,67.9,52.1,29.83,North,5,1.0,0.0,57,0.00,,---,0.00,VWS V14.01,2013-04-22 16:57:00,
2013-04-22 10:02:00,68.3,52.5,29.83,East,93,0.0,0.0,57,0.00,,---,0.00,VWS V14.01,2013-04-22 17:02:00,
2013-04-22 10:07:00,68.7,52.9,29.83,WNW,285,0.0,0.0,57,0.00,,---,0.00,VWS V14.01,2013-04-22 17:07:00,
2013-04-22 10:12:00,69.5,52.6,29.83,NW,321,0.0,0.0,55,0.00,,---,0.00,VWS V14.01,2013-04-22 17:12:00,
2013-04-22 10:17:00,70.0,53.1,29.83,NNE,26,0.0,0.0,55,0.00,,---,0.00,VWS V14.01,2013-04-22 17:17:00,
2013-04-22 10:22:00,70.4,52.0,29.83,ENE,75,2.0,0.0,52,0.00,,---,0.00,VWS V14.01,2013-04-22 17:22:00,
2013-04-22 10:27:00,70.7,52.2,29.83,East,88,2.0,0.0,52,0.00,,---,0.00,VWS V14.01,2013-04-22 17:27:00,
2013-04-22 10:32:00,71.1,52.6,29.84,East,96,4.0,0.0,52,0.00,,---,0.00,VWS V14.01,2013-04-22 17:32:00,
2013-04-22 10:37:00,71.1,52.1,29.84,ENE,78,0.0,0.0,51,0.00,,---,0.00,VWS V14.01,2013-04-22 17:37:00,
2013-04-22 10:42:00,71.6,52.5,29.84,NE,42,2.0,0.0,51,0.00,,---,0.00,VWS V14.01,2013-04-22 17:42:00,
2013-04-22 10:47:00,72.1,52.5,29.84,NNW,346,2.0,0.0,50,0.00,,---,0.00,VWS V14.01,2013-04-22 17:47:00,
2013-04-22 10:52:00,72.7,51.9,29.84,North,5,0.0,0.0,48,0.00,,---,0.00,VWS V14.01,2013-04-22 17:52:00,
2013-04-22 10:58:00,73.1,51.7,29.84,North,360,0.0,0.0,47,0.00,,---,0.00,VWS V14.01,2013-04-22 17:58:00,
2013-04-22 11:03:00,73.5,51.5,29.84,NE,46,1.0,0.0,46,0.00,,---,0.00,VWS V14.01,2013-04-22 18:03:00,
2013-04-22 11:08:00,74.0,51.3,29.84,ENE,59,0.0,0.0,45,0.00,,---,0.00,VWS V14.01,2013-04-22 18:08:00,
2013-04-22 11:13:00,74.5,51.2,29.84,NE,39,0.0,0.0,44,0.00,,---,0.00,VWS V14.01,2013-04-22 18:13:00,
2013-04-22 11:18:00,74.7,50.7,29.84,East,97,5.0,0.0,43,0.00,,---,0.00,VWS V14.01,2013-04-22 18:18:00,
2013-04-22 11:23:00,74.9,51.5,29.84,North,360,1.0,0.0,44,0.00,,---,0.00,VWS V14.01,2013-04-22 18:23:00,
2013-04-22 11:28:00,75.2,51.8,29.83,North,355,1.0,0.0,44,0.00,,---,0.00,VWS V14.01,2013-04-22 18:28:00,
2013-04-22 11:33:00,75.2,51.8,29.83,ENE,60,2.0,0.0,44,0.00,,---,0.00,VWS V14.01,2013-04-22 18:33:00,
2013-04-22 11:38:00,75.5,52.1,29.83,ESE,109,4.0,0.0,44,0.00,,---,0.00,VWS V14.01,2013-04-22 18:38:00,
2013-04-22 11:43:00,75.3,50.7,29.83,NE,49,5.0,0.0,42,0.00,,---,0.00,VWS V14.01,2013-04-22 18:43:00,
2013-04-22 11:48:00,75.2,52.4,29.83,NE,41,0.0,0.0,45,0.00,,---,0.00,VWS V14.01,2013-04-22 18:48:00,
2013-04-22 11:53:00,75.8,52.4,29.83,NNE,19,0.0,0.0,44,0.00,,---,0.00,VWS V14.01,2013-04-22 18:53:00,
2013-04-22 11:58:00,76.7,52.5,29.83,NNE,22,1.0,0.0,43,0.00,,---,0.00,VWS V14.01,2013-04-22 18:58:00,
2013-04-22 12:03:00,77.2,51.7,29.83,ENE,61,2.0,0.0,41,0.00,,---,0.00,VWS V14.01,2013-04-22 19:03:00,
2013-04-22 12:08:00,77.3,51.1,29.83,NE,56,2.0,0.0,40,0.00,,---,0.00,VWS V14.01,2013-04-22 19:08:00,
2013-04-22 12:13:00,77.7,52.8,29.83,NNE,21,1.0,0.0,42,0.00,,---,0.00,VWS V14.01,2013-04-22 19:13:00,
2013-04-22 12:18:00,77.9,53.0,29.82,West,277,0.0,0.0,42,0.00,,---,0.00,VWS V14.01,2013-04-22 19:18:00,
2013-04-22 12:23:00,78.4,54.1,29.82,North,355,0.0,0.0,43,0.00,,---,0.00,VWS V14.01,2013-04-22 19:23:00,
2013-04-22 12:28:00,79.2,51.4,29.82,East,93,1.0,0.0,38,0.00,,---,0.00,VWS V14.01,2013-04-22 19:28:00,
2013-04-22 12:34:00,79.2,51.4,29.81,NE,43,0.0,0.0,38,0.00,,---,0.00,VWS V14.01,2013-04-22 19:34:00,
2013-04-22 12:39:00,79.8,51.2,29.81,ESE,112,2.0,0.0,37,0.00,,---,0.00,VWS V14.01,2013-04-22 19:39:00,
2013-04-22 12:44:00,80.2,50.8,29.81,NNE,18,3.0,0.0,36,0.00,,---,0.00,VWS V14.01,2013-04-22 19:44:00,
2013-04-22 12:49:00,80.5,50.4,29.81,ENE,68,3.0,0.0,35,0.00,,---,0.00,VWS V14.01,2013-04-22 19:49:00,
2013-04-22 12:54:00,80.9,50.7,29.81,East,96,5.0,0.0,35,0.00,,---,0.00,VWS V14.01,2013-04-22 19:54:00,
2013-04-22 12:59:00,80.9,52.2,29.81,ENE,69,2.0,0.0,37,0.00,,---,0.00,VWS V14.01,2013-04-22 19:59:00,
2013-04-22 13:04:00,80.8,49.8,29.80,NNE,28,1.0,0.0,34,0.00,,---,0.00,VWS V14.01,2013-04-22 20:04:00,
2013-04-22 13:09:00,80.5,48.0,29.80,NE,50,3.0,0.0,32,0.00,,---,0.00,VWS V14.01,2013-04-22 20:09:00,
2013-04-22 13:14:00,80.5,50.4,29.79,ENE,70,3.0,0.0,35,0.00,,---,0.00,VWS V14.01,2013-04-22 20:14:00,
2013-04-22 13:19:00,81.1,48.5,29.79,ENE,74,6.0,0.0,32,0.00,,---,0.00,VWS V14.01,2013-04-22 20:19:00,
2013-04-22 13:24:00,81.6,48.1,29.79,East,94,1.0,0.0,31,0.00,,---,0.00,VWS V14.01,2013-04-22 20:24:00,
2013-04-22 13:29:00,82.0,45.7,29.79,NNE,15,0.0,0.0,28,0.00,,---,0.00,VWS V14.01,2013-04-22 20:29:00,
2013-04-22 13:34:00,82.7,49.0,29.79,NNE,12,0.0,0.0,31,0.00,,---,0.00,VWS V14.01,2013-04-22 20:34:00,
2013-04-22 13:39:00,83.3,46.8,29.79,East,89,1.0,0.0,28,0.00,,---,0.00,VWS V14.01,2013-04-22 20:39:00,
2013-04-22 13:44:00,83.3,48.7,29.78,West,279,3.0,0.0,30,0.00,,---,0.00,VWS V14.01,2013-04-22 20:44:00,
2013-04-22 13:49:00,83.8,47.2,29.78,NE,43,3.0,0.0,28,0.00,,---,0.00,VWS V14.01,2013-04-22 20:49:00,
2013-04-22 13:54:00,84.1,46.5,29.78,ESE,102,5.0,0.0,27,0.00,,---,0.00,VWS V14.01,2013-04-22 20:54:00,
2013-04-22 13:59:00,83.8,45.3,29.78,NE,48,1.0,0.0,26,0.00,,---,0.00,VWS V14.01,2013-04-22 20:59:00,
2013-04-22 14:04:00,83.5,46.0,29.78,NE,54,4.0,0.0,27,0.00,,---,0.00,VWS V14.01,2013-04-22 21:04:00,
2013-04-22 14:09:00,83.6,44.1,29.78,NNE,19,2.0,0.0,25,0.00,,---,0.00,VWS V14.01,2013-04-22 21:09:00,
2013-04-22 14:15:00,83.8,45.3,29.78,East,88,4.0,0.0,26,0.00,,---,0.00,VWS V14.01,2013-04-22 21:15:00,
2013-04-22 14:20:00,84.3,44.7,29.78,ENE,61,3.0,0.0,25,0.00,,---,0.00,VWS V14.01,2013-04-22 21:20:00,
2013-04-22 14:25:00,84.6,44.9,29.78,ENE,65,5.0,0.0,25,0.00,,---,0.00,VWS V14.01,2013-04-22 21:25:00,
2013-04-22 14:30:00,85.0,43.1,29.77,ENE,77,2.0,0.0,23,0.00,,---,0.00,VWS V14.01,2013-04-22 21:30:00,
2013-04-22 14:35:00,85.0,44.2,29.77,ENE,69,5.0,0.0,24,0.00,,---,0.00,VWS V14.01,2013-04-22 21:35:00,
2013-04-22 14:40:00,85.0,45.3,29.77,East,101,5.0,0.0,25,0.00,,---,0.00,VWS V14.01,2013-04-22 21:40:00,
2013-04-22 14:45:00,84.8,42.9,29.77,ENE,63,3.0,0.0,23,0.00,,---,0.00,VWS V14.01,2013-04-22 21:45:00,
2013-04-22 14:50:00,84.4,42.6,29.77,North,350,0.0,0.0,23,0.00,,---,0.00,VWS V14.01,2013-04-22 21:50:00,
2013-04-22 14:55:00,84.4,44.8,29.77,NE,53,3.0,0.0,25,0.00,,---,0.00,VWS V14.01,2013-04-22 21:55:00,
2013-04-22 15:00:00,84.6,44.9,29.76,NE,39,6.0,0.0,25,0.00,,---,0.00,VWS V14.01,2013-04-22 22:00:00,
2013-04-22 15:05:00,84.7,45.0,29.76,NNE,27,3.0,0.0,25,0.00,,---,0.00,VWS V14.01,2013-04-22 22:05:00,
2013-04-22 15:10:00,84.8,41.8,29.76,East,97,5.0,0.0,22,0.00,,---,0.00,VWS V14.01,2013-04-22 22:10:00,
2013-04-22 15:15:00,84.6,42.8,29.76,NE,53,1.0,0.0,23,0.00,,---,0.00,VWS V14.01,2013-04-22 22:15:00,
2013-04-22 15:20:00,84.8,42.9,29.76,ENE,64,4.0,0.0,23,0.00,,---,0.00,VWS V14.01,2013-04-22 22:20:00,
2013-04-22 15:25:00,84.9,41.9,29.76,NE,41,5.0,0.0,22,0.00,,---,0.00,VWS V14.01,2013-04-22 22:25:00,
2013-04-22 15:30:00,84.6,41.6,29.75,ENE,71,6.0,0.0,22,0.00,,---,0.00,VWS V14.01,2013-04-22 22:30:00,
2013-04-22 15:35:00,84.2,41.3,29.75,ENE,69,3.0,0.0,22,0.00,,---,0.00,VWS V14.01,2013-04-22 22:35:00,
2013-04-22 15:40:00,84.3,41.4,29.75,NE,48,1.0,0.0,22,0.00,,---,0.00,VWS V14.01,2013-04-22 22:40:00,
2013-04-22 15:46:00,84.6,41.6,29.75,East,84,5.0,0.0,22,0.00,,---,0.00,VWS V14.01,2013-04-22 22:46:00,
2013-04-22 15:51:00,84.8,39.3,29.75,ENE,65,4.0,0.0,20,0.00,,---,0.00,VWS V14.01,2013-04-22 22:51:00,
2013-04-22 15:56:00,84.7,40.5,29.75,ENE,73,3.0,0.0,21,0.00,,---,0.00,VWS V14.01,2013-04-22 22:56:00,
2013-04-22 16:01:00,84.7,41.7,29.75,NE,51,4.0,0.0,22,0.00,,---,0.00,VWS V14.01,2013-04-22 23:01:00,
2013-04-22 16:06:00,84.7,41.7,29.74,ENE,67,4.0,0.0,22,0.00,,---,0.00,VWS V14.01,2013-04-22 23:06:00,
2013-04-22 16:11:00,84.4,40.2,29.74,NE,44,0.0,0.0,21,0.00,,---,0.00,VWS V14.01,2013-04-22 23:11:00,
2013-04-22 16:16:00,84.3,40.2,29.74,ESE,107,5.0,0.0,21,0.00,,---,0.00,VWS V14.01,2013-04-22 23:16:00,
2013-04-22 16:21:00,84.3,42.5,29.74,ENE,63,2.0,0.0,23,0.00,,---,0.00,VWS V14.01,2013-04-22 23:21:00,
2013-04-22 16:26:00,84.3,38.9,29.74,ENE,69,2.0,0.0,20,0.00,,---,0.00,VWS V14.01,2013-04-22 23:26:00,
2013-04-22 16:31:00,84.3,38.9,29.74,ESE,117,8.0,0.0,20,0.00,,---,0.00,VWS V14.01,2013-04-22 23:31:00,
2013-04-22 16:37:00,84.2,40.1,29.73,East,95,6.0,0.0,21,0.00,,---,0.00,VWS V14.01,2013-04-22 23:37:00,
2013-04-22 16:42:00,84.1,40.0,29.73,East,86,7.0,0.0,21,0.00,,---,0.00,VWS V14.01,2013-04-22 23:42:00,
2013-04-22 16:47:00,83.9,38.6,29.73,East,88,6.0,0.0,20,0.00,,---,0.00,VWS V14.01,2013-04-22 23:47:00,
2013-04-22 16:52:00,83.7,38.4,29.73,ENE,67,2.0,0.0,20,0.00,,---,0.00,VWS V14.01,2013-04-22 23:52:00,
2013-04-22 16:57:00,83.6,37.0,29.73,NNE,29,3.0,0.0,19,0.00,,---,0.00,VWS V14.01,2013-04-22 23:57:00,
2013-04-22 17:02:00,83.5,39.5,29.73,ENE,71,2.0,0.0,21,0.00,,---,0.00,VWS V14.01,2013-04-23 00:02:00,
2013-04-22 17:07:00,83.5,38.2,29.73,ENE,63,5.0,0.0,20,0.00,,---,0.00,VWS V14.01,2013-04-23 00:07:00,
2013-04-22 17:12:00,83.4,38.2,29.73,East,80,2.0,0.0,20,0.00,,---,0.00,VWS V14.01,2013-04-23 00:12:00,
2013-04-22 17:17:00,83.3,36.8,29.73,ENE,64,4.0,0.0,19,0.00,,---,0.00,VWS V14.01,2013-04-23 00:17:00,
2013-04-22 17:22:00,83.2,38.0,29.73,ESE,114,4.0,0.0,20,0.00,,---,0.00,VWS V14.01,2013-04-23 00:22:00,
2013-04-22 17:27:00,83.1,39.2,29.73,ENE,69,3.0,0.0,21,0.00,,---,0.00,VWS V14.01,2013-04-23 00:27:00,
2013-04-22 17:32:00,82.9,37.8,29.73,East,95,4.0,0.0,20,0.00,,---,0.00,VWS V14.01,2013-04-23 00:32:00,
2013-04-22 17:37:00,82.8,38.9,29.73,ENE,73,2.0,0.0,21,0.00,,---,0.00,VWS V14.01,2013-04-23 00:37:00,
2013-04-22 17:42:00,82.7,38.8,29.73,NE,55,1.0,0.0,21,0.00,,---,0.00,VWS V14.01,2013-04-23 00:42:00,
2013-04-22 17:47:00,82.5,38.7,29.73,NE,44,3.0,0.0,21,0.00,,---,0.00,VWS V14.01,2013-04-23 00:47:00,
2013-04-22 17:52:00,82.3,38.5,29.73,NE,42,0.0,0.0,21,0.00,,---,0.00,VWS V14.01,2013-04-23 00:52:00,
2013-04-22 17:57:00,82.2,37.2,29.73,ESE,107,8.0,0.0,20,0.00,,---,0.00,VWS V14.01,2013-04-23 00:57:00,
2013-04-22 18:02:00,82.1,38.3,29.73,ENE,59,2.0,0.0,21,0.00,,---,0.00,VWS V14.01,2013-04-23 01:02:00,
2013-04-22 18:07:00,82.0,39.4,29.73,NE,43,3.0,0.0,22,0.00,,---,0.00,VWS V14.01,2013-04-23 01:07:00,
2013-04-22 18:12:00,81.8,38.1,29.73,East,94,4.0,0.0,21,0.00,,---,0.00,VWS V14.01,2013-04-23 01:12:00,
2013-04-22 18:17:00,81.6,36.7,29.73,ESE,107,5.0,0.0,20,0.00,,---,0.00,VWS V14.01,2013-04-23 01:17:00,
2013-04-22 18:23:00,81.4,37.8,29.73,NE,53,3.0,0.0,21,0.00,,---,0.00,VWS V14.01,2013-04-23 01:23:00,
2013-04-22 18:28:00,81.1,36.3,29.73,ENE,65,2.0,0.0,20,0.00,,---,0.00,VWS V14.01,2013-04-23 01:28:00,
2013-04-22 18:33:00,80.9,37.3,29.73,NE,44,4.0,0.0,21,0.00,,---,0.00,VWS V14.01,2013-04-23 01:33:00,
2013-04-22 18:38:00,80.7,35.9,29.73,NNE,29,2.0,0.0,20,0.00,,---,0.00,VWS V14.01,2013-04-23 01:38:00,
2013-04-22 18:43:00,80.5,37.0,29.73,NE,56,1.0,0.0,21,0.00,,---,0.00,VWS V14.01,2013-04-23 01:43:00,
2013-04-22 18:48:00,80.3,35.6,29.73,NW,310,3.0,0.0,20,0.00,,---,0.00,VWS V14.01,2013-04-23 01:48:00,
2013-04-22 18:53:00,80.1,35.5,29.72,ENE,67,3.0,0.0,20,0.00,,---,0.00,VWS V14.01,2013-04-23 01:53:00,
2013-04-22 18:58:00,80.0,37.8,29.72,ENE,58,0.0,0.0,22,0.00,,---,0.00,VWS V14.01,2013-04-23 01:58:00,
2013-04-22 19:03:00,79.7,37.5,29.72,ENE,63,1.0,0.0,22,0.00,,---,0.00,VWS V14.01,2013-04-23 02:03:00,
2013-04-22 19:08:00,79.4,37.3,29.72,NE,47,1.0,0.0,22,0.00,,---,0.00,VWS V14.01,2013-04-23 02:08:00,
2013-04-22 19:13:00,79.1,37.0,29.72,ENE,70,1.0,0.0,22,0.00,,---,0.00,VWS V14.01,2013-04-23 02:13:00,
2013-04-22 19:18:00,78.9,36.9,29.72,East,83,0.0,0.0,22,0.00,,---,0.00,VWS V14.01,2013-04-23 02:18:00,
2013-04-22 19:23:00,78.6,37.7,29.72,NE,43,0.0,0.0,23,0.00,,---,0.00,VWS V14.01,2013-04-23 02:23:00,
2013-04-22 19:28:00,78.3,37.5,29.72,NE,47,0.0,0.0,23,0.00,,---,0.00,VWS V14.01,2013-04-23 02:28:00,
2013-04-22 19:33:00,78.0,37.2,29.72,ENE,59,1.0,0.0,23,0.00,,---,0.00,VWS V14.01,2013-04-23 02:33:00,
2013-04-22 19:38:00,77.7,37.0,29.72,East,81,0.0,0.0,23,0.00,,---,0.00,VWS V14.01,2013-04-23 02:38:00,
2013-04-22 19:43:00,77.4,37.8,29.72,East,81,1.0,0.0,24,0.00,,---,0.00,VWS V14.01,2013-04-23 02:43:00,
2013-04-22 19:48:00,77.1,38.6,29.72,East,81,0.0,0.0,25,0.00,,---,0.00,VWS V14.01,2013-04-23 02:48:00,
2013-04-22 19:53:00,76.7,39.3,29.72,East,81,0.0,0.0,26,0.00,,---,0.00,VWS V14.01,2013-04-23 02:53:00,
2013-04-22 19:58:00,76.2,38.8,29.72,East,81,0.0,0.0,26,0.00,,---,0.00,VWS V14.01,2013-04-23 02:58:00,
2013-04-22 20:04:00,75.2,40.8,29.72,East,81,0.0,0.0,29,0.00,,---,0.00,VWS V14.01,2013-04-23 03:04:00,
2013-04-22 20:09:00,74.1,41.6,29.72,East,81,0.0,0.0,31,0.00,,---,0.00,VWS V14.01,2013-04-23 03:09:00,
2013-04-22 20:14:00,73.3,40.9,29.72,East,81,0.0,0.0,31,0.00,,---,0.00,VWS V14.01,2013-04-23 03:14:00,
2013-04-22 20:19:00,72.5,41.0,29.72,East,81,0.0,0.0,32,0.00,,---,0.00,VWS V14.01,2013-04-23 03:19:00,
2013-04-22 20:24:00,71.8,41.2,29.72,East,81,0.0,0.0,33,0.00,,---,0.00,VWS V14.01,2013-04-23 03:24:00,
2013-04-22 20:29:00,71.2,40.7,29.73,East,80,0.0,0.0,33,0.00,,---,0.00,VWS V14.01,2013-04-23 03:29:00,
2013-04-22 20:34:00,70.6,40.9,29.72,East,82,0.0,0.0,34,0.00,,---,0.00,VWS V14.01,2013-04-23 03:34:00,
2013-04-22 20:39:00,70.4,42.9,29.73,East,81,0.0,0.0,37,0.00,,---,0.00,VWS V14.01,2013-04-23 03:39:00,
2013-04-22 20:44:00,70.2,42.0,29.73,East,81,0.0,0.0,36,0.00,,---,0.00,VWS V14.01,2013-04-23 03:44:00,
2013-04-22 20:49:00,69.9,41.8,29.73,East,81,0.0,0.0,36,0.00,,---,0.00,VWS V14.01,2013-04-23 03:49:00,
2013-04-22 20:54:00,69.7,40.8,29.73,East,81,0.0,0.0,35,0.00,,---,0.00,VWS V14.01,2013-04-23 03:54:00,
2013-04-22 20:59:00,69.4,42.7,29.73,East,81,0.0,0.0,38,0.00,,---,0.00,VWS V14.01,2013-04-23 03:59:00,
2013-04-22 21:01:00,69.3,42.6,29.73,East,81,0.0,0.0,38,0.00,,---,0.00,VWS V14.01,2013-04-23 04:01:00,
2013-04-22 21:02:00,69.2,42.5,29.73,East,81,0.0,0.0,38,0.00,,---,0.00,VWS V14.01,2013-04-23 04:02:00,
2013-04-22 21:07:00,68.8,42.9,29.73,East,81,0.0,0.0,39,0.00,,---,0.00,VWS V14.01,2013-04-23 04:07:00,
2013-04-22 21:12:00,68.3,43.1,29.73,East,81,0.0,0.0,40,0.00,,---,0.00,VWS V14.01,2013-04-23 04:12:00,
2013-04-22 21:17:00,67.9,43.4,29.73,East,81,0.0,0.0,41,0.00,,---,0.00,VWS V14.01,2013-04-23 04:17:00,
2013-04-22 21:22:00,67.4,42.9,29.73,East,80,0.0,0.0,41,0.00,,---,0.00,VWS V14.01,2013-04-23 04:22:00,
2013-04-22 21:27:00,66.9,42.5,29.73,East,81,0.0,0.0,41,0.00,,---,0.00,VWS V14.01,2013-04-23 04:27:00,
2013-04-22 21:32:00,66.5,42.7,29.73,East,81,0.0,0.0,42,0.00,,---,0.00,VWS V14.01,2013-04-23 04:32:00,
2013-04-22 21:37:00,66.1,43.0,29.73,East,81,0.0,0.0,43,0.00,,---,0.00,VWS V14.01,2013-04-23 04:37:00,
2013-04-22 21:42:00,65.7,42.0,29.73,East,81,0.0,0.0,42,0.00,,---,0.00,VWS V14.01,2013-04-23 04:42:00,
2013-04-22 21:47:00,65.3,42.2,29.73,East,81,0.0,0.0,43,0.00,,---,0.00,VWS V14.01,2013-04-23 04:47:00,
2013-04-22 21:52:00,65.0,42.6,29.73,East,81,0.0,0.0,44,0.00,,---,0.00,VWS V14.01,2013-04-23 04:52:00,
2013-04-22 21:58:00,64.7,42.3,29.73,NE,48,0.0,0.0,44,0.00,,---,0.00,VWS V14.01,2013-04-23 04:58:00,
2013-04-22 22:03:00,64.3,42.5,29.73,NE,49,0.0,0.0,45,0.00,,---,0.00,VWS V14.01,2013-04-23 05:03:00,
2013-04-22 22:08:00,64.0,42.3,29.73,NE,49,0.0,0.0,45,0.00,,---,0.00,VWS V14.01,2013-04-23 05:08:00,
2013-04-22 22:13:00,63.9,42.7,29.73,NE,48,0.0,0.0,46,0.00,,---,0.00,VWS V14.01,2013-04-23 05:13:00,
2013-04-22 22:18:00,63.8,43.2,29.73,NE,49,0.0,0.0,47,0.00,,---,0.00,VWS V14.01,2013-04-23 05:18:00,
2013-04-22 22:23:00,63.6,43.6,29.73,NE,49,0.0,0.0,48,0.00,,---,0.00,VWS V14.01,2013-04-23 05:23:00,
2013-04-22 22:28:00,63.4,42.8,29.73,East,94,0.0,0.0,47,0.00,,---,0.00,VWS V14.01,2013-04-23 05:28:00,
2013-04-22 22:33:00,63.2,43.2,29.73,East,92,2.0,0.0,48,0.00,,---,0.00,VWS V14.01,2013-04-23 05:33:00,
2013-04-22 22:38:00,63.1,43.7,29.73,ENE,77,0.0,0.0,49,0.00,,---,0.00,VWS V14.01,2013-04-23 05:38:00,
2013-04-22 22:43:00,63.1,44.2,29.73,ENE,73,0.0,0.0,50,0.00,,---,0.00,VWS V14.01,2013-04-23 05:43:00,
2013-04-22 22:48:00,62.9,44.5,29.73,ENE,69,0.0,0.0,51,0.00,,---,0.00,VWS V14.01,2013-04-23 05:48:00,
2013-04-22 22:53:00,62.8,43.4,29.73,ENE,69,0.0,0.0,49,0.00,,---,0.00,VWS V14.01,2013-04-23 05:53:00,
2013-04-22 22:58:00,62.5,43.1,29.73,East,100,0.0,0.0,49,0.00,,---,0.00,VWS V14.01,2013-04-23 05:58:00,
2013-04-22 23:03:00,62.5,43.6,29.73,East,86,1.0,0.0,50,0.00,,---,0.00,VWS V14.01,2013-04-23 06:03:00,
2013-04-22 23:08:00,62.5,44.2,29.73,East,90,0.0,0.0,51,0.00,,---,0.00,VWS V14.01,2013-04-23 06:08:00,
2013-04-22 23:13:00,62.5,44.7,29.73,East,84,0.0,0.0,52,0.00,,---,0.00,VWS V14.01,2013-04-23 06:13:00,
2013-04-22 23:18:00,62.3,44.0,29.72,NNW,329,0.0,0.0,51,0.00,,---,0.00,VWS V14.01,2013-04-23 06:18:00,
2013-04-22 23:23:00,62.1,44.3,29.72,ENE,76,0.0,0.0,52,0.00,,---,0.00,VWS V14.01,2013-04-23 06:23:00,
2013-04-22 23:28:00,62.0,44.2,29.73,East,94,1.0,0.0,52,0.00,,---,0.00,VWS V14.01,2013-04-23 06:28:00,
2013-04-22 23:34:00,62.0,44.2,29.73,East,91,0.0,0.0,52,0.00,,---,0.00,VWS V14.01,2013-04-23 06:34:00,
2013-04-22 23:39:00,62.0,43.7,29.72,East,96,0.0,0.0,51,0.00,,---,0.00,VWS V14.01,2013-04-23 06:39:00,
2013-04-22 23:44:00,62.0,43.7,29.73,East,91,0.0,0.0,51,0.00,,---,0.00,VWS V14.01,2013-04-23 06:44:00,
2013-04-22 23:49:00,62.1,44.3,29.73,East,91,0.0,0.0,52,0.00,,---,0.00,VWS V14.01,2013-04-23 06:49:00,
2013-04-22 23:54:00,62.1,44.3,29.73,NE,36,0.0,0.0,52,0.00,,---,0.00,VWS V14.01,2013-04-23 06:54:00,
2013-04-22 23:59:00,62.0,43.7,29.73,NNE,32,1.0,0.0,51,0.00,,---,0.00,VWS V14.01,2013-04-23 06:59:00,